Weather History for K2W6 - February, 2013

Change the Weather History Date:

Monday, February 25, 2013

  Actual Average (KNHK) Record (KNHK)
Temperature  
Mean Temperature 35 °F -  
Max Temperature 42 °F 47 °F 39 °F (2015)
Min Temperature 28 °F 32 °F 14 °F (2015)
Degree Days  
Heating Degree Days 30    
Moisture  
Dew Point 22 °F    
Average Humidity 59    
Maximum Humidity 86    
Minimum Humidity 42    
Precipitation  
Precipitation 0.00 in - - ()
Sea Level Pressure  
Sea Level Pressure 30.19 in    
Wind  
Wind Speed 4 mph (NNW)    
Max Wind Speed 9 mph    
Max Gust Speed -    
Visibility 10 miles    
Events      
Averages and records for this station are not official NWS values.
T = Trace of Precipitation, MM = Missing Value Source: NWS Daily Summary

Daily Weather History Graph

Daily Weather History Graph

Search for Another Location

Airport or City:

Trip Planner

Search our weather history database for the weather conditions in past years. The results will help you decide how hot, cold, wet, or windy it might be!

Date:

Astronomy

Feb. 25, 2013 Rise Set
Actual Time 6:43 AM EST 5:55 PM EST
Civil Twilight 6:16 AM EST 6:22 PM EST
Nautical Twilight 5:46 AM EST 6:52 PM EST
Astronomical Twilight 5:15 AM EST 7:23 PM EST
Moon 6:05 PM EST (2/25) 6:12 AM EST (2/25)
Length of Visible Light 12h 05m
Length of Day
11h 12m
Full, 100% of the Moon is Illuminated
Feb 25
Full
Feb 25
Full
Mar 4
Last Quarter
Mar 11
New
Mar 19
First Quarter

Hourly Weather History & Observations

Time (EST) Temp. Windchill Dew Point Humidity Pressure Visibility Wind Dir Wind Speed Gust Speed Precip Events Conditions
12:19 AM 33.8 °F 27.7 °F 17.6 °F 52% 30.12 in 10.0 mi NW 6.9 mph - N/A   Clear
12:39 AM 33.8 °F 29.6 °F 17.6 °F 52% 30.12 in 10.0 mi WNW 4.6 mph - N/A   Clear
12:59 AM 32.0 °F 26.4 °F 17.6 °F 55% 30.13 in 10.0 mi NW 5.8 mph - N/A   Clear
1:19 AM 32.0 °F 24.2 °F 17.6 °F 55% 30.13 in 10.0 mi WNW 9.2 mph - N/A   Clear
2:00 AM 32.0 °F 27.5 °F 19.4 °F 60% 30.13 in 10.0 mi NW 4.6 mph - N/A   Clear
2:20 AM 32.0 °F 27.5 °F 19.4 °F 60% 30.14 in 10.0 mi NW 4.6 mph - N/A   Clear
3:00 AM 32.0 °F 28.7 °F 19.4 °F 60% 30.13 in 10.0 mi WNW 3.5 mph - N/A   Clear
3:20 AM 32.0 °F 27.5 °F 19.4 °F 60% 30.13 in 10.0 mi WNW 4.6 mph - N/A   Clear
3:40 AM 32.0 °F 27.5 °F 19.4 °F 60% 30.14 in 10.0 mi NW 4.6 mph - N/A   Clear
4:00 AM 32.0 °F 28.7 °F 19.4 °F 60% 30.15 in 10.0 mi WNW 3.5 mph - N/A   Clear
4:20 AM 32.0 °F 28.7 °F 19.4 °F 60% 30.15 in 10.0 mi WNW 3.5 mph - N/A   Clear
4:40 AM 32.0 °F 28.7 °F 19.4 °F 60% 30.15 in 10.0 mi WNW 3.5 mph - N/A   Clear
5:00 AM 32.0 °F 28.7 °F 19.4 °F 60% 30.16 in 10.0 mi West 3.5 mph - N/A   Clear
5:20 AM 30.2 °F - 19.4 °F 64% 30.17 in 10.0 mi Calm Calm - N/A   Clear
5:40 AM 30.2 °F - 19.4 °F 64% 30.18 in 10.0 mi Calm Calm - N/A   Clear
6:00 AM 30.2 °F 26.7 °F 19.4 °F 64% 30.17 in 10.0 mi WNW 3.5 mph - N/A   Clear
6:20 AM 30.2 °F - 19.4 °F 64% 30.19 in 10.0 mi Calm Calm - N/A   Clear
7:00 AM 28.4 °F 24.6 °F 19.4 °F 69% 30.19 in 10.0 mi WNW 3.5 mph - N/A   Clear
7:20 AM 30.2 °F - 19.4 °F 64% 30.19 in 10.0 mi Calm Calm - N/A   Clear
8:00 AM 32.0 °F 28.7 °F 21.2 °F 64% 30.18 in 10.0 mi NNW 3.5 mph - N/A   Clear
8:20 AM 33.8 °F 28.6 °F 21.2 °F 60% 30.20 in 10.0 mi NW 5.8 mph - N/A   Clear
8:40 AM 33.8 °F 27.7 °F 21.2 °F 60% 30.20 in 10.0 mi NNW 6.9 mph - N/A   Clear
9:00 AM 33.8 °F 28.6 °F 21.2 °F 60% 30.19 in 10.0 mi North 5.8 mph - N/A   Clear
9:20 AM 35.6 °F 29.9 °F 21.2 °F 56% 30.20 in 10.0 mi North 6.9 mph - N/A   Clear
9:40 AM 35.6 °F 30.7 °F 19.4 °F 52% 30.21 in 10.0 mi NW 5.8 mph - N/A   Clear
10:00 AM 37.4 °F 31.4 °F 19.4 °F 48% 30.21 in 10.0 mi NW 8.1 mph - N/A   Clear
10:20 AM 37.4 °F 32.1 °F 19.4 °F 48% 30.22 in 10.0 mi NNW 6.9 mph - N/A   Clear
10:41 AM 37.4 °F 33.8 °F 21.2 °F 52% 30.22 in 10.0 mi North 4.6 mph - N/A   Clear
11:01 AM 41.0 °F 37.1 °F 21.2 °F 45% 30.21 in 10.0 mi North 5.8 mph - N/A   Clear
11:21 AM 41.0 °F 36.4 °F 21.2 °F 45% 30.22 in 10.0 mi NNE 6.9 mph - N/A   Clear
11:41 AM 41.0 °F 37.1 °F 21.2 °F 45% 30.22 in 10.0 mi ENE 5.8 mph - N/A   Clear
12:01 PM 41.0 °F 39.0 °F 21.2 °F 45% 30.23 in 10.0 mi NNE 3.5 mph - N/A   Clear
12:21 PM 41.0 °F 37.1 °F 21.2 °F 45% 30.22 in 10.0 mi NNE 5.8 mph - N/A   Clear
12:41 PM 41.0 °F 38.0 °F 23.0 °F 49% 30.21 in 10.0 mi ENE 4.6 mph - N/A   Clear
1:01 PM 41.0 °F 37.1 °F 23.0 °F 49% 30.22 in 10.0 mi NNE 5.8 mph - N/A   Clear
1:21 PM 42.8 °F 39.3 °F 23.0 °F 46% 30.21 in 10.0 mi ESE 5.8 mph - N/A   Clear
1:41 PM 42.8 °F - 23.0 °F 46% 30.20 in 10.0 mi Calm Calm - N/A   Clear
2:01 PM 42.8 °F - 21.2 °F 42% 30.19 in 10.0 mi Calm Calm - N/A   Clear
2:21 PM 42.8 °F - 23.0 °F 46% 30.18 in 10.0 mi Calm Calm - N/A   Clear
2:41 PM 42.8 °F - 21.2 °F 42% 30.18 in 10.0 mi Calm Calm - N/A   Clear
3:01 PM 42.8 °F 41.1 °F 21.2 °F 42% 30.17 in 10.0 mi NE 3.5 mph - N/A   Clear
3:21 PM 42.8 °F 41.1 °F 21.2 °F 42% 30.18 in 10.0 mi East 3.5 mph - N/A   Clear
3:41 PM 42.8 °F 39.3 °F 21.2 °F 42% 30.17 in 10.0 mi NE 5.8 mph - N/A   Clear
4:01 PM 42.8 °F - 23.0 °F 46% 30.18 in 10.0 mi Calm Calm - N/A   Clear
4:21 PM 42.8 °F 41.1 °F 23.0 °F 46% 30.19 in 10.0 mi ESE 3.5 mph - N/A   Clear
4:41 PM 42.8 °F - 23.0 °F 46% 30.20 in 10.0 mi Calm Calm - N/A   Clear
5:01 PM 42.8 °F - 23.0 °F 46% 30.20 in 10.0 mi Calm Calm - N/A   Clear
5:21 PM 41.0 °F - 23.0 °F 49% 30.20 in 10.0 mi Calm Calm - N/A   Clear
5:41 PM 41.0 °F - 23.0 °F 49% 30.21 in 10.0 mi Calm Calm - N/A   Clear
6:01 PM 39.2 °F - 23.0 °F 52% 30.21 in 10.0 mi Calm Calm - N/A   Clear
6:21 PM 37.4 °F - 24.8 °F 60% 30.21 in 10.0 mi Calm Calm - N/A   Clear
6:41 PM 35.6 °F - 24.8 °F 65% 30.22 in 10.0 mi Calm Calm - N/A   Clear
7:01 PM 35.6 °F - 26.6 °F 70% 30.23 in 10.0 mi Calm Calm - N/A   Clear
7:22 PM 33.8 °F - 26.6 °F 75% 30.24 in 10.0 mi Calm Calm - N/A   Clear
7:42 PM 33.8 °F - 24.8 °F 70% 30.24 in 10.0 mi Calm Calm - N/A   Clear
8:02 PM 32.0 °F - 26.6 °F 80% 30.24 in 10.0 mi Calm Calm - N/A   Clear
8:22 PM 32.0 °F - 24.8 °F 75% 30.24 in 10.0 mi Calm Calm - N/A   Clear
8:42 PM 32.0 °F - 26.6 °F 80% 30.24 in 10.0 mi Calm Calm - N/A   Clear
9:02 PM 32.0 °F - 26.6 °F 80% 30.24 in 10.0 mi Calm Calm - N/A   Clear
9:22 PM 32.0 °F - 26.6 °F 80% 30.24 in 10.0 mi Calm Calm - N/A   Clear
9:42 PM 32.0 °F - 26.6 °F 80% 30.23 in 10.0 mi Calm Calm - N/A   Clear
10:02 PM 30.2 °F - 24.8 °F 80% 30.23 in 10.0 mi Calm Calm - N/A   Clear
10:22 PM 30.2 °F - 26.6 °F 86% 30.23 in 10.0 mi Calm Calm - N/A   Clear
10:42 PM 30.2 °F - 24.8 °F 80% 30.24 in 10.0 mi Calm Calm - N/A   Clear
11:02 PM 30.2 °F - 26.6 °F 86% 30.23 in 10.0 mi Calm Calm - N/A   Clear
11:22 PM 30.2 °F - 26.6 °F 86% 30.21 in 10.0 mi Calm Calm - N/A   Clear
11:42 PM 30.2 °F - 26.6 °F 86% 30.22 in 10.0 mi Calm Calm - N/A   Clear